<?xml version="1.0"?>
<gpx xmlns="http://www.topografix.com/GPX/1/1" xmlns:xsi="http://www.w3.org/2001/XMLSchema-instance" version="1.1" creator="GPX RubyGem 1.0.0 -- http://dougfales.github.io/gpx/" xsi:schemaLocation="http://www.topografix.com/GPX/1/1 http://www.topografix.com/GPX/1/1/gpx.xsd">
  <metadata>
    <name/>
    <time>2026-05-10T12:24:05+00:00</time>
    <bound minlat="90.0" minlon="180.0" maxlat="-90.0" maxlon="-180.0"/>
  </metadata>
  <trk>
    <name/>
    <trkseg>
      <trkpt lat="50.445503" lon="6.889166">
        <time>1970-01-01T00:00:00+00:00</time>
        <ele>283.0</ele>
      </trkpt>
      <trkpt lat="50.445505" lon="6.889114">
        <time>1970-01-01T00:00:00+00:00</time>
        <ele>284.0</ele>
      </trkpt>
      <trkpt lat="50.445495" lon="6.888926">
        <time>1970-01-01T00:00:00+00:00</time>
        <ele>286.0</ele>
      </trkpt>
      <trkpt lat="50.445478" lon="6.888739">
        <time>1970-01-01T00:00:00+00:00</time>
        <ele>288.0</ele>
      </trkpt>
      <trkpt lat="50.445332" lon="6.8889">
        <time>1970-01-01T00:00:00+00:00</time>
        <ele>297.0</ele>
      </trkpt>
      <trkpt lat="50.445285" lon="6.888948">
        <time>1970-01-01T00:00:00+00:00</time>
        <ele>298.0</ele>
      </trkpt>
      <trkpt lat="50.445211" lon="6.889034">
        <time>1970-01-01T00:00:00+00:00</time>
        <ele>301.0</ele>
      </trkpt>
      <trkpt lat="50.445185" lon="6.888997">
        <time>1970-01-01T00:00:00+00:00</time>
        <ele>303.0</ele>
      </trkpt>
      <trkpt lat="50.445082" lon="6.889051">
        <time>1970-01-01T00:00:00+00:00</time>
        <ele>309.0</ele>
      </trkpt>
      <trkpt lat="50.444898" lon="6.88919">
        <time>1970-01-01T00:00:00+00:00</time>
        <ele>318.0</ele>
      </trkpt>
      <trkpt lat="50.444973" lon="6.88889">
        <time>1970-01-01T00:00:00+00:00</time>
        <ele>319.0</ele>
      </trkpt>
      <trkpt lat="50.444836" lon="6.888862">
        <time>1970-01-01T00:00:00+00:00</time>
        <ele>328.0</ele>
      </trkpt>
      <trkpt lat="50.444863" lon="6.888766">
        <time>1970-01-01T00:00:00+00:00</time>
        <ele>327.0</ele>
      </trkpt>
      <trkpt lat="50.444864" lon="6.888608">
        <time>1970-01-01T00:00:00+00:00</time>
        <ele>328.0</ele>
      </trkpt>
      <trkpt lat="50.444682" lon="6.888766">
        <time>1970-01-01T00:00:00+00:00</time>
        <ele>336.0</ele>
      </trkpt>
      <trkpt lat="50.444716" lon="6.88849">
        <time>1970-01-01T00:00:00+00:00</time>
        <ele>335.0</ele>
      </trkpt>
      <trkpt lat="50.444634" lon="6.888583">
        <time>1970-01-01T00:00:00+00:00</time>
        <ele>340.0</ele>
      </trkpt>
      <trkpt lat="50.44461" lon="6.888406">
        <time>1970-01-01T00:00:00+00:00</time>
        <ele>340.0</ele>
      </trkpt>
      <trkpt lat="50.444529" lon="6.888472">
        <time>1970-01-01T00:00:00+00:00</time>
        <ele>345.0</ele>
      </trkpt>
      <trkpt lat="50.444559" lon="6.887852">
        <time>1970-01-01T00:00:00+00:00</time>
        <ele>337.0</ele>
      </trkpt>
      <trkpt lat="50.444526" lon="6.887733">
        <time>1970-01-01T00:00:00+00:00</time>
        <ele>336.0</ele>
      </trkpt>
      <trkpt lat="50.444535" lon="6.887695">
        <time>1970-01-01T00:00:00+00:00</time>
        <ele>335.0</ele>
      </trkpt>
      <trkpt lat="50.44453" lon="6.887698">
        <time>1970-01-01T00:00:00+00:00</time>
        <ele>335.0</ele>
      </trkpt>
      <trkpt lat="50.44453" lon="6.887698">
        <time>1970-01-01T00:00:00+00:00</time>
        <ele>335.0</ele>
      </trkpt>
      <trkpt lat="50.444535" lon="6.887695">
        <time>1970-01-01T00:00:00+00:00</time>
        <ele>335.0</ele>
      </trkpt>
      <trkpt lat="50.444526" lon="6.887733">
        <time>1970-01-01T00:00:00+00:00</time>
        <ele>336.0</ele>
      </trkpt>
      <trkpt lat="50.444559" lon="6.887852">
        <time>1970-01-01T00:00:00+00:00</time>
        <ele>337.0</ele>
      </trkpt>
      <trkpt lat="50.444529" lon="6.888472">
        <time>1970-01-01T00:00:00+00:00</time>
        <ele>345.0</ele>
      </trkpt>
      <trkpt lat="50.44461" lon="6.888406">
        <time>1970-01-01T00:00:00+00:00</time>
        <ele>340.0</ele>
      </trkpt>
      <trkpt lat="50.444634" lon="6.888583">
        <time>1970-01-01T00:00:00+00:00</time>
        <ele>340.0</ele>
      </trkpt>
      <trkpt lat="50.444716" lon="6.88849">
        <time>1970-01-01T00:00:00+00:00</time>
        <ele>335.0</ele>
      </trkpt>
      <trkpt lat="50.444682" lon="6.888766">
        <time>1970-01-01T00:00:00+00:00</time>
        <ele>336.0</ele>
      </trkpt>
      <trkpt lat="50.444864" lon="6.888608">
        <time>1970-01-01T00:00:00+00:00</time>
        <ele>328.0</ele>
      </trkpt>
      <trkpt lat="50.444863" lon="6.888766">
        <time>1970-01-01T00:00:00+00:00</time>
        <ele>327.0</ele>
      </trkpt>
      <trkpt lat="50.444836" lon="6.888862">
        <time>1970-01-01T00:00:00+00:00</time>
        <ele>328.0</ele>
      </trkpt>
      <trkpt lat="50.444973" lon="6.88889">
        <time>1970-01-01T00:00:00+00:00</time>
        <ele>319.0</ele>
      </trkpt>
      <trkpt lat="50.444898" lon="6.88919">
        <time>1970-01-01T00:00:00+00:00</time>
        <ele>318.0</ele>
      </trkpt>
      <trkpt lat="50.445082" lon="6.889051">
        <time>1970-01-01T00:00:00+00:00</time>
        <ele>309.0</ele>
      </trkpt>
      <trkpt lat="50.445185" lon="6.888997">
        <time>1970-01-01T00:00:00+00:00</time>
        <ele>303.0</ele>
      </trkpt>
      <trkpt lat="50.445211" lon="6.889034">
        <time>1970-01-01T00:00:00+00:00</time>
        <ele>301.0</ele>
      </trkpt>
      <trkpt lat="50.445285" lon="6.888948">
        <time>1970-01-01T00:00:00+00:00</time>
        <ele>298.0</ele>
      </trkpt>
      <trkpt lat="50.445332" lon="6.8889">
        <time>1970-01-01T00:00:00+00:00</time>
        <ele>297.0</ele>
      </trkpt>
      <trkpt lat="50.445478" lon="6.888739">
        <time>1970-01-01T00:00:00+00:00</time>
        <ele>288.0</ele>
      </trkpt>
      <trkpt lat="50.445495" lon="6.888926">
        <time>1970-01-01T00:00:00+00:00</time>
        <ele>286.0</ele>
      </trkpt>
      <trkpt lat="50.445505" lon="6.889114">
        <time>1970-01-01T00:00:00+00:00</time>
        <ele>284.0</ele>
      </trkpt>
      <trkpt lat="50.445503" lon="6.889166">
        <time>1970-01-01T00:00:00+00:00</time>
        <ele>283.0</ele>
      </trkpt>
    </trkseg>
  </trk>
</gpx>
